Flag for Germany Weather past 2 weeks in Sonneberg, Thuringia, Germany

Now
22 °F

Overcast.


Feels Like: 17 °F
Forecast: 17 / 23 °F
Wind: 3 mph from Southeast

Location: Hof

Current Time: Dec 27, 2014 at 9:54:05 AM

Latest Report: Dec 27, 2014 at 9:00 AM


Visibility: 17 mi

Pressure: 29.88 "Hg

Humidity: 83%

Dew point: 18 °F

Location of SonnebergLocation

Historic Weather in Sonneberg — Graph

°F

Sonneberg temperature yesterday

Maximum temperature yesterday: 32 °F (at 1:00 AM)
Minimum temperature yesterday: 23 °F (at 11:00 PM)
Average temperature yesterday: 29 °F

Past Weeks' High & Low Weather Summary

 TemperatureHumidityPressure
High50 °F (Dec 19, 12:00 AM)100% (Dec 15, 6:00 AM)30.44 "Hg (Dec 15, 6:00 AM)
Low19 °F (Dec 27, 5:00 AM)70% (Dec 15, 2:00 PM)29.64 "Hg (Dec 12, 9:00 PM)
Average38 °F91%30.04 "Hg
* Reported Dec 12 8:00 AM — Dec 27 8:00 AM, Sonneberg, Weather by CustomWeather, © 2014

Note: Actual official high and low records may vary slightly from our data, if they occured in-between our weather recording intervals... More about our weather records

Advertising

Sonneberg weather history for previous 24 hours

 ConditionsComfort  
Time TempWeatherWind HumidityBarometerVisibility
8:00 AM
Dec 27
22 °FOvercast.3 mph87%29.93 "Hg13 mi
7:00 AM21 °FOvercast.5 mph93%29.97 "Hg9 mi
6:00 AM19 °FOvercast.3 mph93%30.04 "Hg12 mi
5:00 AM19 °FOvercast.2 mph95%30.09 "Hg11 mi
3:00 AM20 °FPassing clouds.2 mph97%30.18 "Hg6 mi
2:00 AM25 °FOvercast.2 mph90%30.19 "Hg16 mi
1:00 AM23 °FPassing clouds.2 mph96%30.23 "Hg9 mi
12:00 AM22 °FPassing clouds.1 mph96%30.27 "Hg9 mi
11:00 PM
Dec 26
23 °FClear.2 mph89%30.29 "HgN/A
9:00 PM24 °FClear.2 mph89%30.33 "Hg15 mi
8:00 PM24 °FClear.2 mph89%30.34 "HgN/A
7:00 PM24 °FClear.2 mph89%30.36 "Hg12 mi
6:00 PM26 °FClear.2 mph83%30.36 "Hg22 mi
5:00 PM28 °FClear.2 mph77%30.35 "Hg25 mi
3:00 PM31 °FLow clouds.5 mph76%30.34 "Hg22 mi
2:00 PM32 °FOvercast.3 mph79%30.33 "Hg22 mi
1:00 PM32 °FOvercast.2 mph73%30.34 "Hg22 mi
12:00 PM31 °FOvercast.3 mph78%30.35 "Hg22 mi
11:00 AM30 °FOvercast.5 mph84%30.37 "Hg19 mi
9:00 AM29 °FLow clouds.6 mph90%30.35 "Hg17 mi
Weather by CustomWeather, © 2014

See weather overviewHow to use our weather pages